Regional Weather Roundup
Issued by NWS San Angelo, TX

Home | Current Version | Previous Version | Text Only | Print | Product List | Glossary On
Versions: 1 2 3 4 5 6 7 8 9 10 11 12 13 14 15 16 17 18 19 20 21 22 23 24 25 26 27 28 29 30 31 32 33 34 35 36 37 38 39 40 41 42 43 44 45 46 47 48 49 50
000
ASUS44 KSJT 231410
RWRSJT
WEST CENTRAL TEXAS REGIONAL WEATHER ROUNDUP
NATIONAL WEATHER SERVICE SAN ANGELO TX
900 AM CDT SUN APR 23 2017

NOTE: "FAIR" INDICATES FEW OR NO CLOUDS BELOW 12,000 FEET WITH NO
SIGNIFICANT WEATHER AND/OR OBSTRUCTIONS TO VISIBILITY.

TXZ049-054-064>066-071>073-076>078-098-099-113-114-127-128-139-140-
154-155-168>170-231500
...LOCATIONS ACROSS WEST CENTRAL TEXAS...

CITY           SKY/WX    TMP DP  RH WIND       PRES   REMARKS
SAN ANGELO     SUNNY     54  37  52 N6        30.25S
ABILENE        SUNNY     50  40  68 N7        30.25S
DYESS AFB      SUNNY     53  38  56 N8        30.24S
JUNCTION       SUNNY     51  38  60 CALM      30.24R
SWEETWATER     SUNNY     53  36  53 N7        30.28S
BROWNWOOD      SUNNY     52  39  62 N8        30.23F
COLEMAN        SUNNY     55  37  50 N12       30.24S
SONORA         SUNNY     52  37  58 CALM      30.31R
OZONA            N/A     50  39  66 CALM      30.30S
BRADY          NOT AVBL
$$

TEXAS PANHANDLE/OKLAHOMA PANHANDLE

CITY           SKY/WX    TMP DP  RH WIND       PRES   REMARKS
AMARILLO       SUNNY     47  35  63 SW9       30.25S
BORGER         SUNNY     47  36  65 S3        30.25S
CANADIAN       SUNNY     44  41  87 CALM      30.25S
DALHART        SUNNY     45  38  76 S12       30.24S WCI  39
DUMAS          SUNNY     45  36  72 SW12      30.24S WCI  39
GUYMON         NOT AVBL
HEREFORD       SUNNY     45  36  69 W3        30.27R
PAMPA          SUNNY     50  39  67 SW7       30.25S
PERRYTON       SUNNY     48  40  75 SW9       30.22S
$$

SOUTHERN PANHANDLE/SOUTH PLAINS/ROLLING PLAINS

CITY           SKY/WX    TMP DP  RH WIND       PRES   REMARKS
LUBBOCK        MOSUNNY   49  35  58 S3        30.26S
SNYDER         SUNNY    N/A N/A N/A N5        30.26S
CHILDRESS      SUNNY     50  37  61 NW9       30.26S
SEMINOLE       SUNNY     50  36  58 CALM      30.29R
$$

PERMIAN BASIN

CITY           SKY/WX    TMP DP  RH WIND       PRES   REMARKS
MIDLAND        SUNNY     52  36  54 CALM      30.28R
ODESSA         SUNNY     52  36  54 S6        30.29R
WINK           SUNNY     54  37  52 E9        30.27R
$$

FAR WEST/SOUTHWEST MOUNTAINS/TRANS PECOS

CITY           SKY/WX    TMP DP  RH WIND       PRES   REMARKS
ALPINE         SUNNY     49  35  58 E5        30.33S
DRYDEN           N/A     57  40  52 VRB3      30.27S
EL PASO        MOSUNNY   54  33  45 E5        30.22R
FORT STOCKTON  SUNNY     53  39  59 SE9       30.27S
GUADALUPE PASS SUNNY     46  35  65 NE36      30.23S WCI  36
MARFA          SUNNY     49  35  58 E5        30.30R
PECOS          SUNNY     51  37  59 E5        30.28S
$$

DALLAS/FORT WORTH METROPLEX

CITY           SKY/WX    TMP DP  RH WIND       PRES   REMARKS
DFW AIRPORT    SUNNY     57  44  62 N15       30.16R
FTW MEACHAM    SUNNY     55  43  63 NW10      30.18S
DAL-EXECUTIVE  SUNNY     55  46  71 NW12      30.16R
GRAND PRAIRIE  SUNNY     54  41  62 NW3       30.19R
ADDISON        SUNNY     54  45  71 NW12      30.17S
MESQUITE       SUNNY     55  43  62 NW7       30.16S
LANCASTER      SUNNY     54  46  74 NW8       30.17S
$$

NORTH CENTRAL TEXAS

CITY           SKY/WX    TMP DP  RH WIND       PRES   REMARKS
SHRMAN/DENISON SUNNY     53  45  75 N9        30.18S
GAINESVILLE    SUNNY     53  42  68 N10       30.19S
BRIDGEPORT     SUNNY     53  42  66 N6        30.22S
DENTON         SUNNY     54  45  71 N10       30.18R
WAXAHACHIE     SUNNY     54  46  73 NW7       30.18S
GRANBURY       SUNNY     54  43  66 NW10      30.22S
$$

WESTERN NORTH TEXAS

CITY           SKY/WX    TMP DP  RH WIND       PRES   REMARKS
WICHITA FALLS  SUNNY     53  40  61 NW12      30.21S
VERNON         SUNNY     53  35  49 NW14      30.25S
BRECKENRIDGE   SUNNY     57  40  54 NW8       30.23S
COMANCHE       SUNNY     53  42  64 N12       30.22S
$$

CENTRAL AND SOUTH CENTRAL TEXAS

CITY           SKY/WX    TMP DP  RH WIND       PRES   REMARKS
AUSTIN/BERGSTM SUNNY     60  42  51 N10       30.18R
WACO           SUNNY     56  44  64 N13G24    30.18R
HILLSBORO      SUNNY     53  46  78 N13       30.18R
TEMPLE         SUNNY     55  43  63 N14G21    30.18S
KILLEEN-GRAY   SUNNY     56  41  56 N16G22    30.18R
FORT HOOD      SUNNY     56  42  60 N13       30.16R
GEORGETOWN     SUNNY     55  39  54 NW13G21   30.19R
LAGO VISTA     FAIR      58  41  53 N6G20     30.19R
SAN MARCOS     SUNNY     59  43  55 N15       30.19S
NEW BRAUNFELS  SUNNY     60  42  51 N16       30.17S
RANDOLPH AFB   SUNNY     58  43  58 N8        30.19R
SAN ANTONIO    SUNNY     58  41  53 N9        30.21R
STINSON        SUNNY     61  41  47 N9        30.19R
PLEASANTON     NOT AVBL
LA GRANGE      SUNNY     58  47  65 N8        30.13S
GIDDINGS       SUNNY     55  44  65 N12G18    30.16R
$$

EAST TEXAS

CITY           SKY/WX    TMP DP  RH WIND       PRES   REMARKS
PARIS          SUNNY     54  43  66 N10       30.12F
CLARKSVILLE    NOT AVBL
TYLER          SUNNY     54  46  74 N10       30.13R
LONGVIEW       MOSUNNY   55  48  77 NW10      30.10R
PALESTINE      SUNNY     52  48  85 N6        30.15S
NACOGDOCHES    SUNNY     54  45  71 N12       30.08S
$$

TEXAS HILL COUNTRY AND EDWARDS PLATEAU

CITY           SKY/WX    TMP DP  RH WIND       PRES   REMARKS
LLANO          SUNNY     55  43  62 NW6       30.25S
HORSESHOE BAY  FAIR      54  42  65 NW9       30.21S
KERRVILLE      SUNNY     52  43  70 NW6       30.22R
FREDERICKSBRG  SUNNY     54  38  55 N12       30.22R
ROCKSPRINGS    SUNNY     54  37  54 NE7       30.27R
HONDO          SUNNY     58  43  57 NW6       30.23R
UVALDE         SUNNY     57  45  63 CALM      30.26R
DEL RIO        NOT AVBL
$$

SOUTHEAST TEXAS

CITY           SKY/WX    TMP DP  RH WIND       PRES   REMARKS
COLLEGE STN    SUNNY     55  45  68 N16G22    30.14S
CALDWELL       NOT AVBL
CROCKETT       SUNNY     54  45  71 N12G18    30.15S
BRENHAM        SUNNY     57  46  65 N16       30.14S
HUNTSVILLE     SUNNY     54  44  69 N9G21     30.12R
CONROE         SUNNY     55  44  66 N10       30.11R
HOUSTON BUSH   MOSUNNY   57  44  62 N21       30.11R
HOUSTON HOBBY  MOSUNNY   58  43  57 N20G30    30.09S
PERLAND        MOSUNNY   60  42  51 N16G23    30.11S
WHARTON        SUNNY     57  43  59 NW15      30.14S
$$

THE UPPER TEXAS COAST

CITY           SKY/WX    TMP DP  RH WIND       PRES   REMARKS
ORANGE         MOSUNNY   56  47  71 N10G17    30.08R
PORT ARTHUR    SUNNY     58  45  62 N13       30.06R
GALVESTON      PTSUNNY   60  48  64 N22       30.09R
ANGLETON       PTSUNNY   59  45  59 N13G23    30.10S
BAY CITY       MOSUNNY   58  46  63 N9        30.12R
$$

TEXAS COASTAL BEND, RIO GRANDE PLAINS DEEP SOUTH TEXAS

CITY           SKY/WX    TMP DP  RH WIND       PRES   REMARKS
VICTORIA       SUNNY     60  45  57 N15G21    30.16S
BEEVILLE       FAIR      61  46  58 N13G18    30.19S
ROCKPORT       CLOUDY    61  44  53 N13G21    30.16R
PORT ARANSAS   CLOUDY    61  44  54 N20G25    30.17R
PORT LAVACA    SUNNY     59  49  69 N13       30.15S
CORPUS CHRISTI PTSUNNY   60  47  61 N18G29    30.18R
KINGSVILLE NAS CLOUDY    63  50  62 N14       30.19R
COTULLA        MOSUNNY   64  43  46 N8        30.24R
LAREDO         CLOUDY    64  44  48 N12       30.24R
BROWNSVILLE    CLOUDY    66  50  56 N18G25    30.14R
PORT ISABEL    CLOUDY    65  51  60 N18G30    30.13R
HEBBRONVILLE   CLOUDY    59  47  66 N9        30.22R
MCALLEN        CLOUDY    64  47  53 N16       30.20R
WESLACO        CLOUDY    61  46  57 N12G21    30.18R
FALFURRIAS     CLOUDY    62  49  61 N7        30.19R
EDINBURG       CLOUDY    63  47  56 N10       30.20R
$$



USA.gov is the U.S. government's official web portal to all federal, state and local government web resources and services.